Location: Aalsum
(53.3404°N, 6.0062°E)
Time: 09:53:47
(UTC+00:00)

Cosmos 1844 Rocket - Pass Details

Date: 28 January 2023
Orbit: 826 x 843 km, 71.0° (Epoch: 19 March)

Event Time Altitude Azimuth Distance (km) Brightness Sun altitude
Rises 19:22:14 0° 326° (NNW) 3,381 6.4 -28.3°
Reaches altitude 10° 19:24:42 10° 324° (NW) 2,442 5.6 -28.7°
Maximum altitude 19:30:12 62° 245° (WSW) 931 3.0 -29.5°
Enters shadow 19:30:42 59° 218° (SW) 953 3.0 -29.5°
